VK2XSE Weather Reports


Display with metric or nautical units.
time (UTC)temp
F
wind
direction
speed
MPH
gust
MPH
rain 1hr
in
rain 24hr
in
rain mn
in
humidity
%
barometer
mb
20260507073516 53 248 3.0 8.0 0.00 0.00 0.00 54 1024.5
20260507072517 53 248 3.0 10.0 0.00 0.00 0.00 53 1024.5
20260507071516 53 248 3.0 7.0 0.00 0.00 0.00 52 1024.2
20260507070518 54 248 4.0 8.0 0.00 0.00 0.00 52 1024.0
20260507065518 54 248 4.0 9.0 0.00 0.00 0.00 51 1023.9
20260507064518 54 248 4.0 7.0 0.00 0.00 0.00 51 1023.8
20260507063518 54 248 4.0 8.0 0.00 0.00 0.00 51 1023.7
20260507062518 55 225 4.0 7.0 0.00 0.00 0.00 50 1023.8
20260507061518 55 248 5.0 12.0 0.00 0.00 0.00 48 1023.8
20260507060518 55 248 3.0 7.0 0.00 0.00 0.00 48 1023.8
20260507055518 55 248 4.0 8.0 0.00 0.00 0.00 48 1023.8
20260507054518 56 248 5.0 12.0 0.00 0.00 0.00 47 1023.6
20260507053518 56 248 3.0 8.0 0.00 0.00 0.00 47 1023.6
20260507052516 56 248 5.0 11.0 0.00 0.00 0.00 46 1023.6
20260507051518 56 225 5.0 11.0 0.00 0.00 0.00 45 1023.7
20260507050518 56 225 5.0 20.0 0.00 0.00 0.00 44 1023.7
20260507045518 56 225 4.0 6.0 0.00 0.00 0.00 45 1023.5
20260507044518 56 225 4.0 10.0 0.00 0.00 0.00 44 1023.5
20260507043518 56 225 6.0 11.0 0.00 0.00 0.00 44 1023.5
20260507042518 56 225 5.0 13.0 0.00 0.00 0.00 44 1023.5
20260507041518 56 225 4.0 10.0 0.00 0.00 0.00 46 1023.5
20260507040518 56 225 5.0 9.0 0.00 0.00 0.00 45 1023.5
20260507035518 56 225 4.0 9.0 0.00 0.00 0.00 46 1023.5
20260507034518 56 248 4.0 9.0 0.00 0.00 0.00 47 1023.6
20260507033518 56 248 5.0 10.0 0.00 0.00 0.00 45 1023.6
20260507032518 56 225 4.0 7.0 0.00 0.00 0.00 47 1023.6
20260507031518 56 248 4.0 9.0 0.00 0.00 0.00 48 1023.5
20260507030518 56 248 6.0 14.0 0.00 0.00 0.00 47 1023.6
20260507025518 55 225 4.0 9.0 0.00 0.00 0.00 48 1023.6
20260507024518 55 225 5.0 20.0 0.00 0.00 0.00 49 1023.6
20260507023518 55 225 5.0 10.0 0.00 0.00 0.00 49 1023.8
20260507022518 55 225 4.0 9.0 0.00 0.00 0.00 50 1023.7
20260507021518 55 225 4.0 6.0 0.00 0.00 0.00 50 1023.9
20260507020518 54 248 6.0 11.0 0.00 0.00 0.00 50 1024.0
20260507015518 54 248 5.0 9.0 0.00 0.00 0.00 53 1024.0
20260507014518 54 225 5.0 8.0 0.00 0.00 0.00 53 1024.1
20260507013517 54 225 4.0 7.0 0.00 0.00 0.00 55 1024.1
20260507012517 53 248 6.0 14.0 0.00 0.00 0.00 56 1024.2
20260507011517 53 248 6.0 15.0 0.00 0.00 0.00 54 1024.2
20260507010517 53 225 5.0 13.0 0.00 0.00 0.00 57 1024.3
20260507005518 52 248 6.0 14.0 0.00 0.00 0.00 58 1024.1
20260507004517 52 248 3.0 8.0 0.00 0.00 0.00 61 1024.2
20260507003517 51 248 8.0 14.0 0.00 0.00 0.00 61 1024.1
20260507002517 51 225 4.0 8.0 0.00 0.00 0.00 63 1024.2
20260507001517 50 248 6.0 11.0 0.00 0.00 0.00 63 1024.2
20260507000517 50 225 4.0 9.0 0.00 0.00 0.00 64 1023.9
20260506235517 50 248 5.0 9.0 0.00 0.00 0.00 65 1023.9
20260506234517 49 248 4.0 11.0 0.00 0.00 0.00 66 1023.9
20260506233517 49 248 5.0 11.0 0.00 0.00 0.00 67 1023.8
20260506232517 49 0 5.0 13.0 0.00 0.00 0.00 67 1023.8
20260506231517 48 248 5.0 10.0 0.00 0.00 0.00 68 1023.7
20260506230517 48 248 5.0 11.0 0.00 0.00 0.00 70 1023.7
20260506225517 47 248 4.0 11.0 0.00 0.00 0.00 71 1023.5
20260506224517 46 248 4.0 8.0 0.00 0.00 0.00 74 1023.4
20260506223517 46 248 5.0 13.0 0.00 0.00 0.00 75 1023.3
20260506222517 46 248 4.0 10.0 0.00 0.00 0.00 76 1023.1
20260506221517 45 248 3.0 7.0 0.00 0.00 0.00 78 1023.0
20260506220517 45 270 4.0 13.0 0.00 0.00 0.00 79 1022.7
20260506215517 45 270 5.0 14.0 0.00 0.00 0.00 80 1022.5
20260506214517 44 270 4.0 10.0 0.00 0.00 0.00 81 1022.3
20260506213517 44 248 4.0 13.0 0.00 0.00 0.00 83 1022.2
20260506212517 44 270 3.0 8.0 0.00 0.00 0.00 83 1022.1
20260506211517 44 0 3.0 9.0 0.00 0.00 0.00 83 1021.9
20260506210517 44 270 2.0 4.0 0.00 0.00 0.00 81 1021.9
20260506205517 44 0 2.0 4.0 0.00 0.00 0.00 79 1021.8
20260506204517 44 0 3.0 6.0 0.00 0.00 0.00 78 1021.6
20260506203517 45 0 2.0 4.0 0.00 0.00 0.00 76 1021.5
20260506202517 45 270 3.0 7.0 0.00 0.00 0.00 74 1021.4
20260506201517 46 0 2.0 5.0 0.00 0.00 0.00 72 1021.3
20260506200517 46 248 2.0 6.0 0.00 0.00 0.00 71 1021.1
20260506195517 46 248 2.0 7.0 0.00 0.00 0.00 71 1021.0
20260506194517 46 248 3.0 7.0 0.00 0.00 0.00 71 1021.2
20260506193517 47 248 2.0 4.0 0.00 0.00 0.00 71 1021.0
20260506192517 47 0 2.0 4.0 0.00 0.00 0.00 70 1020.9
20260506191517 47 248 2.0 4.0 0.00 0.00 0.00 69 1020.9
20260506190517 48 0 4.0 8.0 0.00 0.00 0.00 69 1020.7
20260506185517 48 0 5.0 11.0 0.00 0.00 0.00 72 1020.5
20260506184516 48 0 5.0 9.0 0.00 0.00 0.00 73 1020.5
20260506183516 49 248 4.0 10.0 0.00 0.00 0.00 75 1020.4
20260506182516 49 248 5.0 9.0 0.00 0.00 0.00 73 1020.3
20260506181516 50 0 4.0 8.0 0.00 0.00 0.00 72 1020.3
20260506180516 50 225 4.0 8.0 0.00 0.00 0.00 69 1020.0
20260506175516 50 225 5.0 11.0 0.00 0.00 0.00 72 1020.0
20260506174516 51 248 3.0 7.0 0.00 0.00 0.00 77 1019.9
20260506173516 52 225 3.0 7.0 0.00 0.00 0.00 81 1019.9
20260506172516 53 248 7.0 18.0 0.00 0.00 0.00 78 1019.7
20260506171518 53 248 7.0 15.0 0.00 0.00 0.00 76 1019.6
20260506170518 54 248 6.0 12.0 0.00 0.00 0.00 76 1019.5
20260506165518 54 248 5.0 9.0 0.00 0.00 0.00 75 1019.5
20260506164518 54 248 6.0 14.0 0.00 0.00 0.00 75 1019.4
20260506163518 54 248 6.0 14.0 0.00 0.00 0.00 75 1019.4
20260506162518 54 248 5.0 10.0 0.00 0.00 0.00 78 1019.3
20260506161518 53 248 5.0 11.0 0.00 0.00 0.00 83 1019.4
20260506160518 53 270 6.0 11.0 0.00 0.00 0.00 85 1019.4
20260506155518 53 270 5.0 9.0 0.00 0.00 0.00 84 1019.3
20260506154518 54 0 7.0 13.0 0.00 0.00 0.00 80 1019.4
20260506153518 54 270 3.0 6.0 0.00 0.00 0.00 78 1019.2
20260506152518 54 0 2.0 4.0 0.00 0.00 0.00 78 1019.2
20260506151518 54 0 3.0 6.0 0.00 0.00 0.00 77 1019.2
20260506150518 54 0 1.0 3.0 0.00 0.00 0.00 78 1019.1
20260506145518 53 0 1.0 4.0 0.00 0.00 0.00 79 1019.2
20260506144518 53 0 1.0 4.0 0.00 0.00 0.00 79 1019.2
20260506143518 53 0 1.0 2.0 0.00 0.00 0.00 79 1019.1
20260506142518 53 270 1.0 2.0 0.00 0.00 0.00 79 1019.2
20260506141518 53 270 1.0 3.0 0.00 0.00 0.00 79 1019.4
20260506140518 53 270 2.0 5.0 0.00 0.00 0.00 79 1019.5
20260506135518 53 0 1.0 2.0 0.00 0.00 0.00 80 1019.6
20260506134518 53 0 2.0 3.0 0.00 0.00 0.00 81 1019.5
20260506133518 52 0.0 2.0 0.00 0.00 0.00 84 1019.4
20260506132517 51 315 1.0 2.0 0.00 0.00 0.00 85 1019.4
20260506131518 51 315 1.0 2.0 0.00 0.00 0.00 84 1019.5
20260506130517 51 0.0 2.0 0.00 0.00 0.00 85 1019.6
20260506125517 51 0.0 2.0 0.00 0.00 0.00 84 1019.6
20260506124517 51 0.0 2.0 0.00 0.00 0.00 84 1019.6
20260506123517 51 338 1.0 2.0 0.00 0.00 0.00 83 1019.7
20260506122517 51 293 1.0 1.0 0.00 0.00 0.00 82 1020.0
20260506121517 51 0.0 2.0 0.00 0.00 0.00 83 1020.2
20260506120517 51 0.0 2.0 0.00 0.00 0.00 82 1020.4
20260506115517 52 0.0 1.0 0.00 0.00 0.00 82 1020.4
20260506114517 52 0.0 2.0 0.00 0.00 0.00 81 1020.4
20260506113517 52 0.0 1.0 0.00 0.00 0.00 80 1020.4
20260506112517 53 0.0 1.0 0.00 0.00 0.00 80 1020.4
20260506111517 53 0 1.0 2.0 0.00 0.00 0.00 79 1020.4
20260506110517 53 293 1.0 2.0 0.00 0.00 0.00 78 1020.3
20260506105517 53 293 1.0 2.0 0.00 0.00 0.00 78 1020.4
20260506104517 54 315 1.0 3.0 0.00 0.00 0.00 77 1020.3
20260506103517 54 315 1.0 4.0 0.00 0.00 0.00 76 1020.3
20260506102517 55 293 1.0 2.0 0.00 0.00 0.00 76 1020.1
20260506101517 55 0.0 2.0 0.00 0.00 0.00 76 1020.1
20260506095517 55 293 1.0 1.0 0.00 0.00 0.00 75 1020.1
20260506094517 55 0.0 2.0 0.00 0.00 0.00 74 1020.0
20260506093517 55 0.0 0.0 0.00 0.00 0.00 74 1020.0
20260506092517 55 0.0 2.0 0.00 0.00 0.00 73 1020.0
20260506091517 55 0.0 2.0 0.00 0.00 0.00 72 1020.1
20260506090517 56 0.0 2.0 0.00 0.00 0.00 72 1020.1
20260506085517 56 0.0 2.0 0.00 0.00 0.00 71 1020.1
20260506084517 56 0.0 1.0 0.00 0.00 0.00 70 1020.1
20260506083517 57 0.0 0.0 0.00 0.00 0.00 69 1020.2
20260506082517 57 0.0 2.0 0.00 0.00 0.00 68 1020.2
20260506081517 58 0.0 0.0 0.00 0.00 0.00 66 1020.2
20260506080517 59 270 1.0 2.0 0.00 0.00 0.00 65 1020.2